sat.trackr.live / text

‹ back to catalog

STARLINK-32237

NORAD 60443 · 2024-144U

PAYLOAD ACTIVE UNKNOWN

§ Identity

Operator
Country
US
Launch date
2024-08-12
Launch site
AFETR
Launch vehicle
Mass (kg)
RCS (m²)

Purposes: comms

External: N2YO · Heavens-Above · Gunter

§ Orbital elements

Epoch: 2026-09-21T18:59:24.470880Z

Period
93.85 min
Inclination
53.1604°
Eccentricity
0.0000990
Mean motion
15.34385354 rev/d
Perigee alt
462.1 km
Apogee alt
463.4 km
Semi-major
6,840.9 km
B*
3.9844e-7
RAAN
21.9697°
Arg perigee
100.0433°
Mean anomaly
260.0681°
Rev number
11,939

§ Raw data

STARLINK-322371 60443U 24144U   26264.79125545 -.00000363  00000+0  39844-6 0  99962 60443  53.1604  21.9697 0000990 100.0433 260.0681 15.34385354119398

JSON: /api/v1/satellites/60443 · /tle

For live sub-satellite position, see the globe view (requires WebGL).

§ Visibility from observer

Set your observer location to see the next 7 days of passes ≥ 10°. The values pass through the URL so the page stays shareable.

No JS? Fill the form by hand. The geolocation button needs JavaScript.